Flag for Germany Weather past 2 weeks in Ludwigsfelde, Brandenburg, Germany

Now
58 °F

Passing clouds.


Feels Like: 59 °F
Forecast: 54 / 68 °F
Wind: 3 mph from West

Location: Potsdam

Current Time: Oct 1, 2014 at 2:10:31 AM

Latest Report: Oct 1, 2014 at 1:00 AM


Visibility: 5 mi

Pressure: 30.29 "Hg

Humidity: 98%

Dew point: 57 °F

Location of LudwigsfeldeLocation

Historic Weather in Ludwigsfelde — Graph

°F

Ludwigsfelde temperature yesterday

Maximum temperature yesterday: 67 °F (at 5:00 PM)
Minimum temperature yesterday: 60 °F (at 11:00 PM)
Average temperature yesterday: 62 °F

Past Weeks' High & Low Weather Summary

 TemperatureHumidityPressure
High76 °F (Sep 17, 3:00 PM)100% (Sep 21, 4:00 AM)30.38 "Hg (Sep 21, 4:00 AM)
Low45 °F (Sep 24, 2:00 AM)48% (Sep 17, 4:00 PM)29.80 "Hg (Sep 22, 11:00 AM)
Average59 °F84%30.05 "Hg
* Reported Sep 16 1:00 AM — Oct 1 1:00 AM, Ludwigsfelde, Weather by CustomWeather, © 2014

Note: Actual official high and low records may vary slightly from our data, if they occured in-between our weather recording intervals... More about our weather records

Advertising

Ludwigsfelde weather history for previous 24 hours

 ConditionsComfort  
Time TempWeatherWind HumidityBarometerVisibility
1:00 AM
Oct 1
58 °FPassing clouds.3 mph98%30.29 "Hg5 mi
12:00 AM60 °FOvercast.3 mph96%30.28 "Hg7 mi
11:00 PM
Sep 30
60 °FOvercast.3 mph95%30.28 "Hg8 mi
10:00 PM61 °FOvercast.2 mph94%30.27 "Hg9 mi
9:00 PM62 °FOvercast.3 mph92%30.27 "Hg11 mi
8:00 PM61 °FOvercast.3 mph94%30.26 "Hg11 mi
7:00 PM62 °FPassing clouds.3 mph90%30.25 "Hg14 mi
6:00 PM65 °FPartly sunny.3 mph82%30.24 "Hg14 mi
5:00 PM67 °FOvercast.3 mph78%30.24 "Hg11 mi
4:00 PM65 °FPartly sunny.3 mph81%30.24 "Hg12 mi
3:00 PM66 °FPartly sunny.3 mph83%30.24 "Hg9 mi
2:00 PM62 °FLow clouds.5 mph94%30.24 "Hg5 mi
1:00 PM62 °FLow clouds.6 mph95%30.23 "Hg4 mi
12:00 PM64 °FOvercast.6 mph85%30.22 "Hg7 mi
11:00 AM64 °FOvercast.5 mph89%30.21 "Hg5 mi
10:00 AM62 °FFog.5 mph95%30.21 "Hg4 mi
9:00 AM61 °FOvercast.5 mph96%30.21 "Hg2 mi
8:00 AM61 °FFog.2 mph98%30.20 "Hg3 mi
7:00 AM60 °FOvercast.2 mph98%30.20 "Hg5 mi
6:00 AM60 °FLight rain. Overcast.3 mph97%30.20 "Hg13 mi
5:00 AM61 °FLight rain. Overcast.3 mph95%30.20 "Hg14 mi
4:00 AM61 °FLight rain. Overcast.6 mph94%30.20 "Hg16 mi
3:00 AM61 °FOvercast.2 mph96%30.19 "Hg19 mi
2:00 AM61 °FOvercast.2 mph96%30.20 "Hg19 mi
Weather by CustomWeather, © 2014

See weather overviewHow to use our weather pages